Home > Weather > Ciudad del Este > Past weeks

Flag for Paraguay Weather for the Past 2 Weeks in Ciudad del Este, Paraguay

Now
72 °F

Clear.


Feels Like: 72 °F
Forecast: 64 / 68 °F
Wind: 7 mph from Southeast

Location: Foz Do Iguacu Aeroporto

Current Time: May 5, 2016 at 8:12:07 PM

Latest Report: May 5, 2016 at 7:00 PM


Visibility: 10 mi

Pressure: 30.01 "Hg

Humidity: 78%

Dew Point: 64 °F

Location of Ciudad del EsteLocation

Historic Weather in Ciudad del Este — Graph

°F

Ciudad del Este Temperature Yesterday

Maximum temperature yesterday: 79 °F (at 1:00 PM)
Minimum temperature yesterday: 52 °F (at 6:00 AM)
Average temperature yesterday: 65 °F

High & Low Weather Summary for the Past Weeks

 TemperatureHumidityPressure
High91 °F (Apr 23, 1:00 PM)100% (Apr 25, 10:00 AM)30.27 "Hg (Apr 25, 10:00 AM)
Low32 °F (Apr 25, 10:00 AM)28% (Apr 25, 5:00 PM)29.62 "Hg (Apr 25, 3:00 PM)
Average64 °F78%30.00 "Hg
* Reported Apr 20 7:00 PM — May 5 7:00 PM, Ciudad del Este, Weather by CustomWeather, © 2016

Note: Actual official high and low records may vary slightly from our data, if they occured in-between our weather recording intervals... More about our weather records

Advertising

Ciudad del Este Weather History for the Previous 24 Hours

Scroll right to see more
 ConditionsComfort  
Time TempWeatherWind HumidityBarometerVisibility
7:00 PM
Thu, May 5
72 °FClear.7 mph78%30.01 "Hg10 mi
6:00 PM72 °FClear.5 mph78%30.01 "Hg10 mi
5:00 PM73 °FClear.6 mph78%30.01 "Hg10 mi
4:00 PM77 °FPartly sunny.5 mph65%30.01 "HgN/A
3:00 PM79 °FScattered clouds.2 mph61%30.01 "HgN/A
2:00 PM79 °FSunny.No wind58%30.01 "Hg10 mi
1:00 PM77 °FSunny.3 mph57%30.04 "Hg10 mi
12:00 PM79 °FSunny.6 mph54%30.07 "Hg10 mi
11:00 AM79 °FSunny.3 mph58%30.09 "Hg10 mi
10:00 AM73 °FSunny.2 mph69%30.09 "Hg10 mi
9:00 AM68 °FSunny.6 mph78%30.09 "Hg10 mi
8:00 AM64 °FSunny.10 mph83%30.09 "Hg10 mi
7:00 AM63 °FSunny.10 mph88%30.07 "Hg10 mi
6:00 AM59 °FSunny.7 mph94%30.04 "Hg10 mi
5:00 AM57 °FClear.6 mph94%30.04 "Hg10 mi
4:00 AM57 °FClear.2 mph100%30.04 "Hg10 mi
3:00 AM57 °FClear.3 mph100%30.04 "Hg10 mi
2:00 AM57 °FClear.3 mph94%30.04 "Hg10 mi
1:00 AM57 °FClear.2 mph100%30.04 "Hg10 mi
12:00 AM61 °FClear.5 mph88%30.04 "Hg10 mi
11:00 PM
Wed, May 4
63 °FClear.5 mph88%30.04 "Hg10 mi
10:00 PM63 °FClear.7 mph88%30.04 "Hg10 mi
9:00 PM64 °FClear.3 mph83%30.04 "Hg10 mi
8:00 PM66 °FClear.6 mph78%30.01 "Hg10 mi
Weather by CustomWeather, © 2016

See weather overviewHow to use our weather pages